Terug naar catalogus

KSLV-II R/B

ActiefSSO
NORAD 52896·ROCKET BODY·🇰🇷 South Korea

Gelanceerd Jun 21, 2022 vanaf Naro Space Center

Loading…

Volgende Passages (komende 24 uur)

TLE

VersSource: Space-Track

Epoch: Sep 14, 2026, 16:21 UTC

1 52896U 22065C   26257.68147401  .00000255  00000-0  56368-4 0  9992
2 52896  98.2763  58.0094 0015372 272.1762  87.7681 14.65431170226254

Volg KSLV-II R/B in realtime met AllMySat

Download on the App Store